CZ-6A DEB

Satellite information

Favourite Embed

Satellite Type and Status

DEBRISIN ORBIT

Key statistics

Satellite CZ-6A DEB at a glance.

Uptime

494

Days in orbit

Revolutions

≈ 14.1

Per day

Orbit

LEO

Low Earth Orbit

Inclination

89.0

Latest

Satellite identification and parameters

Extended collection of information and parameters for CZ-6A DEB.

Object identification

Identified? True

Debris? True

Object name: CZ-6A DEB

International designator: 2024-140ACX

Object number (NORAD): 61831

Object ID (CCSDS): 61831

Country: PEOPLES REPUBLIC OF CHINA (PRC)

Current information (Y/N): Y

RCS size: SMALL

Orbital parameters

Period: 101.989 minutes

Inclination: 88.9882 deg

SMA: 7230.956 km

Apoapsis: 919.251 km

Periapsis: 786.391 km

RAAN: 295.9955 deg

Eccentricy: 0.00918687

Argument of periapsis: 103.0273 deg

Mean anomaly: 258.1188 deg

Mean motion: 14.11916985 rev/day

Mean motion (dot): 0.0000359 rev/day2

B* drag term: 0.0018808478 1/REarth

Two-line elements (TLE)

Creation date: Dec. 12, 2025, 10:14 a.m.

Reference frame: TEME

Reference center: EARTH

Epoch: Dec. 12, 2025, 7:15 a.m. UTC

TLE line 0: 0 CZ-6A DEB

TLE line 1: 1 61831U 24140ACX 25346.30242125 .00003590 00000-0 18808-2 0 9993

TLE line 2: 2 61831 88.9882 295.9955 0091869 103.0273 258.1188 14.11916985 63565

Live tracking on map

Real-time ground track for satellite CZ-6A DEB.

In-orbit conjunctions

A list of the most updated potential collisions computed for object CZ-6A DEB.

Target Orbit TCA Probability of collision Miss distance Type
DMSP 5D-2 F8 (USA 26) SSO 2025-11-23 01:05:18 0.0008182023 217.0 (m) PAYLOAD
CZ-6A DEB LEO 2025-01-11 02:50:25 0.0007871826 996.0 (m) DEBRIS
CZ-6A DEB LEO 2025-01-04 02:13:58 0.001315277 369.0 (m) DEBRIS
FENGYUN 1C DEB SSO 2024-12-27 15:26:58 0.0002428815 456.0 (m) DEBRIS

Associated space launch

18 Low Earth Orbit communication satellites with Ku, Q and V band payloads for the G60 constellation operated by Shanghai Spacecom Satellite Technology (SSST) with funding backed by the Shanghai local government. Initial constellation will consist of 1296 satellites by 2027 with long term plans to expand it to 12000 satellites.

CZ-6A DEB was lifted into orbit during the mission ‘Long March 6A | G60 Polar Group 01’, on board a Long March 6A space rocket.

The launch took place on Aug. 6, 2024, 6:42 a.m. from Launch Complex 9A.

For more information about the launch, click the button.

Launch to space Long March 6A | G60 Polar Group 01
Long March 6A | G60 Polar Group 01

Agency: N/A

Status: Launch Successful

Launch date: Aug. 6, 2024, 6:42 a.m. UTC

Rocket: Long March 6A

Launch pad: Launch Complex 9A

Location: Taiyuan Satellite Launch Center, People's Republic of China

...

Latest news about this satellite

News about space launch
Brightness of first Chinese broadband constellation satellites alarms astronomers

The first satellites of a Chinese broadband constellation are significantly brighter than those of Western systems, posing a new challenge for astronomers.

News about space launch
Chinese rocket stage breaks up into cloud of more than 700 pieces of space debris

HELSINKI — A Chinese Long March 6A rocket’s upper stage has fragmented into a cloud of over 700 pieces of space debris, adding to concerns about long-term orbital safety. China […]

News about space launch
China's Thousand Sails Megaconstellation Kicks Off with Dangerous Debris Field

China's Thousand Sails Megaconstellation Kicks Off with Dangerous Debris Field


Newsletter sign-up

Weekly statistics, charts and insights to help you stay on top of the space industry.